Voltar ao catálogo

STARLINK-32046

AtivoComunicaçõesVLEO
NORAD 60198·PAYLOAD·🇺🇸 United States

Lançado Jul 3, 2024 de Cape Canaveral Space Force Station

Loading…

Próximas Passagens (próximas 24 horas)

TLE

AtualizadoSource: CelesTrak SupGP

Época: Sep 14, 2026, 21:00 UTC

1 60198C 24124R   26257.87548611 -.00041065  00000+0 -13203-2 0  2574
2 60198  53.1570 162.4652 0001258  87.9316 104.6655 15.31727870    12

Acompanhe STARLINK-32046 em tempo real com AllMySat

Download on the App Store